Regional Weather Roundup
Issued by NWS Boston, MA

Home | Current Version | Previous Version | Text Only | Print | Product List | Glossary On
Versions: 1 2 3 4 5 6 7 8 9 10 11 12 13 14 15 16 17 18 19 20 21 22 23 24 25 26 27 28 29 30 31 32 33 34 35 36 37 38 39 40 41 42 43 44 45 46 47 48 49 50
000
ASUS41 KBOX 060610
RWRBOX

REGIONAL WEATHER ROUNDUP
NATIONAL WEATHER SERVICE TAUNTON MA
200 AM EDT FRI MAY 06 2016

NOTE:  "FAIR" INDICATES FEW OR NO CLOUDS BELOW 12,000 FEET WITH NO
SIGNIFICANT WEATHER AND/OR OBSTRUCTIONS TO VISIBILITY.  THE FOLLOWING
OBSERVATION LOCATIONS DO NOT REPORT PRESENT WEATHER...PROVINCETOWN...
SMITHFIELD...BLOCK ISLAND...KEENE...AND OXFORD.

MAZALL-060700-
EASTERN MASSACHUSETTS

CITY           SKY/WX    TMP DP  RH WIND       PRES   REMARKS
BOSTON         CLOUDY    46  43  89 N9        29.68F
6HR MIN TEMP:  45; 6HR MAX TEMP:  46; 6HR PCP:  0.09;

BEVERLY        CLOUDY    46  42  86 N10       29.66F
LAWRENCE       CLOUDY    46  42  86 N12       29.69F VSB 1
BEDFORD        CLOUDY    46  43  89 N6        29.67F
BLUE HILL        N/A     42  42 100 N16G26    29.64F
NORWOOD        CLOUDY    46  43  89 N8        29.67F
MARSHFIELD     CLOUDY    46  45  93 N8G18     29.67F
PLYMOUTH       LGT RAIN  45  44  97 N14G22    29.65F FOG
TAUNTON        CLOUDY    47  43  86 N9G16     29.64F
NEW BEDFORD    CLOUDY    45  43  93 N8        29.63S
$$

MAZALL-060700-
CAPE COD AND THE ISLANDS

CITY           SKY/WX    TMP DP  RH WIND       PRES   REMARKS
FALMOUTH       DRIZZLE   45  43  93 N14G23    29.62F
HYANNIS        LGT RAIN  45  43  93 N18G28    29.59S FOG
CHATHAM        CLOUDY    44  43  96 N10G20    29.61R
PROVINCETOWN   CLOUDY    44  43  96 N17G23    29.63S
NANTUCKET      CLOUDY    47  43  86 N18G25    29.59S
MARTHAS VNYRD  CLOUDY    45  43  93 N22G32    29.60F
$$

MAZALL-060700-
CENTRAL AND WESTERN MASSACHUSETTS

CITY           SKY/WX    TMP DP  RH WIND       PRES   REMARKS
WORCESTER      CLOUDY    43  41  93 NE10G20   29.66S
6HR MIN TEMP:  42; 6HR MAX TEMP:  43; 6HR PCP:  0.12;

FITCHBURG      CLOUDY    47  43  86 NE3       29.69S
ORANGE         CLOUDY    47  43  86 N5        29.69R
SPRINGFIELD    CLOUDY    49  43  80 NE10      29.69S
WESTFIELD      CLOUDY    49  43  80 N8        29.69F
NORTH ADAMS    CLOUDY    50  44  80 CALM      29.70S
PITTSFIELD     CLOUDY    48  42  80 N6        29.67F
$$

RIZALL-060700-
RHODE ISLAND

CITY           SKY/WX    TMP DP  RH WIND       PRES   REMARKS
PROVIDENCE     CLOUDY    46  42  86 N14       29.66S
6HR MIN TEMP:  45; 6HR MAX TEMP:  46; 6HR PCP: TRACE;

NEWPORT        CLOUDY    46  42  86 N20G30    29.63S
BLOCK ISLAND   CLOUDY    46  42  86 N17G25    29.66S
SMITHFIELD     CLOUDY    45  39  81 NE18G24   29.66F
WESTERLY       CLOUDY    48  40  73 NE10      29.67R
$$

CTZALL-060700-
CONNECTICUT

CITY           SKY/WX    TMP DP  RH WIND       PRES   REMARKS
BRADLEY INTL   CLOUDY    49  42  77 NE10      29.69R
6HR MIN TEMP:  49; 6HR MAX TEMP:  50; 6HR PCP: TRACE;

HARTFORD       CLOUDY    50  43  77 N9        29.69R
BRIDGEPORT     CLOUDY    51  42  71 NE13      29.67S
DANBURY        CLOUDY    50  41  71 NE7       29.68F
GROTON         CLOUDY    47  44  90 NE6       29.67R
NEW HAVEN      CLOUDY    49  43  80 NE8       29.67F
CHESTER        CLOUDY    46  43  87 NE8       29.67S
MERIDEN        CLOUDY    50  42  74 N7        29.68S
WILLIMANTIC    CLOUDY    49  42  77 NE9       29.68S
OXFORD           N/A     46  39  76 NE12G17   29.68F
$$

MEZ002-015-021-024-NHZ003-005-008-011-012-014-VTZ005-008-060700-
NORTHERN NEW ENGLAND

CITY           SKY/WX    TMP DP  RH WIND       PRES   REMARKS
PORTLAND ME    LGT RAIN  46  43  89 N10       29.69S
6HR MIN TEMP:  45; 6HR MAX TEMP:  47; 6HR PCP:  0.20;

BANGOR ME      LGT RAIN  47  42  83 N13       29.70F
CONCORD NH     CLOUDY    49  42  77 N5        29.69F
MANCHESTER NH  CLOUDY    48  42  80 N6        29.67F
NASHUA NH      CLOUDY    47  44  90 NW5       29.69F
PORTSMOUTH NH  CLOUDY    46  43  87 N9        29.67F
JAFFREY NH     CLOUDY    44  43  96 CALM      29.68F
KEENE NH       CLOUDY    48  41  76 NW3       29.70R
BURLINGTON VT  FAIR      48  39  71 N5        29.75F
MT. WASHINGTON NOT AVBL
$$

NYZ052-076-060700-
EASTERN NEW YORK

CITY           SKY/WX    TMP DP  RH WIND       PRES   REMARKS
ALBANY         CLOUDY    54  44  69 N6        29.70F
6HR MIN TEMP:  53; 6HR MAX TEMP:  56;

NEW YORK CITY  CLOUDY    52  46  80 NE15      29.66R
6HR MIN TEMP:  52; 6HR MAX TEMP:  58;

$$

ANZALL-060700-
MARINE OBSERVATIONS

STATION/POSITION TIME  TEMP    WIND        PRES    VSBY  WAVE
                       AIR SEA DIR/SP/G                  HT/PER
                 (UTC) (F)     (DEG/KT/KT) (MB)    (MI)  (FT/S)
BOSTON BUOY      0550   47 47  360/ 21/ 25 1002.9F         8/ 8
BUZZARDS BAY     0500   46      20/ 24/ 27 1003.4R
NANTUCKET SOUND  0550   46 46  350/ 21/ 25 1001.7F         4/ 4
MASS BAY-STELLWA 0504   45 45                N/A    1 3/4  7/ 8
ISLE OF SHOALS   0500   45     350/ 17/ 18 1005.0R
S OF BLOCK IS    NOT AVBL
$$

......................KEY.........................
  SKY/WX - SKY CONDITION/PRESENT WEATHER
  TMP    - TEMPERATURE IN FAHRENHEIT
  DWPT   - DEWPOINT IN FAHRENHEIT
  RH     - RELATIVE HUMIDITY IN PERCENT
  WIND   - DIRECTION AND SPEED IN MPH
  PRES   - MEAN SEA LEVEL PRESSURE IN INCHES OF HG
  WCI    - WIND CHILL INDEX
  VSB    - VISIBILITY IN MILES
  HX     - HEAT INDEX
  TC     - TEMPERATURE IN CELSIUS
  VRB    - VARIABLE WIND DIRECTION
  N/A    - NOT AVAILABLE



USA.gov is the U.S. government's official web portal to all federal, state and local government web resources and services.